sat.trackr.live / text

‹ back to catalog

STARLINK-37730

NORAD 69303 · 2026-119H

PAYLOAD ACTIVE UNKNOWN

§ Identity

Operator
Country
US
Launch date
2026-05-30
Launch site
AFWTR
Launch vehicle
Mass (kg)
RCS (m²)

Purposes: comms

External: N2YO · Heavens-Above · Gunter

§ Orbital elements

Epoch: 2026-09-20T01:18:49.917888Z

Period
93.91 min
Inclination
97.2843°
Eccentricity
0.0001216
Mean motion
15.33444127 rev/d
Perigee alt
464.7 km
Apogee alt
466.4 km
Semi-major
6,843.7 km
B*
3.6340e-4
RAAN
287.7717°
Arg perigee
91.3960°
Mean anomaly
268.7422°
Rev number
1,859

§ Raw data

STARLINK-377301 69303U 26119H   26263.05474442  .00011675  00000+0  36340-3 0  99972 69303  97.2843 287.7717 0001216  91.3960 268.7422 15.33444127 18591

JSON: /api/v1/satellites/69303 · /tle

For live sub-satellite position, see the globe view (requires WebGL).

§ Visibility from observer

Set your observer location to see the next 7 days of passes ≥ 10°. The values pass through the URL so the page stays shareable.

No JS? Fill the form by hand. The geolocation button needs JavaScript.